Regional Weather Roundup
Issued by NWS

Home | Current Version | Previous Version | Graphics & Text | Print | Product List | Glossary On
Versions: 1 2 3 4 5 6 7 8 9 10 11 12 13 14 15 16 17 18 19 20 21 22 23 24 25 26 27 28 29 30 31 32 33 34 35 36 37 38 39 40 41 42 43 44 45 46 47 48 49 50
000
ASUS43 KDTX 160210
RWRMI
MICHIGAN HOURLY REGIONAL WEATHER ROUNDUP
NATIONAL WEATHER SERVICE DETROIT/PONTIAC MI
1000 PM EDT TUE APR 15 2014

NOTE: "FAIR" INDICATES FEW OR NO CLOUDS BELOW 12,000 FEET WITH NO
SIGNIFICANT WEATHER AND/OR OBSTRUCTION TO VISIBILITY.

MIZ047>049-052>055-059>063-066>070-074>076-081>083-160300-
SOUTHEAST LOWER MICHIGAN

CITY           SKY/WX    TMP DP  RH WIND       PRES   REMARKS
ADRIAN         CLEAR     29   9  43 NW8       30.22R
ALMA           CLEAR     28  11  48 W3        30.20R
ANN ARBOR      CLEAR     29   8  41 NW7       30.20R
BAD AXE        CLEAR     25   8  47 NW3       30.18R
DETROIT CITY   CLEAR     31  12  45 NW6       30.20R
DETROIT        PTCLDY    29  14  53 NW5       30.21R
FLINT          CLEAR     27  10  49 NW6       30.20R
GROSSE ILE     CLEAR     30  16  55 NW8       30.20R
HILLSDALE      CLEAR     26   7  44 NW3       30.19R
HOWELL         CLEAR     26  11  53 NW3       30.19R

CITY           SKY/WX    TMP DP  RH WIND       PRES   REMARKS
JACKSON        CLEAR     27   7  42 W6        30.20R
LAMBERTVILLE   CLEAR     32  16  51 W3        30.22R
LANSING        CLEAR     26   8  46 NW5       30.21R
LAPEER         NOT AVBL
MASON          CLEAR     27  10  49 NW6       30.20R
MONROE         CLEAR     28  16  59 CALM      30.19R
MT. CLEMENS    CLEAR     27  12  52 NW7       30.19R
PONTIAC        PTCLDY    27  10  49 NW8       30.17R
PORT HOPE        N/A     27   7  42 W3        30.16R
PORT HURON     CLEAR     27  12  54 NW3       30.20R
TRI CITIES     CLEAR     29   8  41 W3        30.20R
YPSILANTI      CLEAR     30  12  47 NW7       30.20R
$$
MIZ043>046-050>051-056>058-064>065-071>073-077>080-160300-
SOUTHWEST LOWER MICHIGAN

CITY           SKY/WX    TMP DP  RH WIND       PRES   REMARKS
BATTLE CREEK   CLEAR     26   9  48 W5        30.21R
BENTON HARBOR  CLEAR     26  15  63 CALM      30.22R
BIG RAPIDS     CLEAR     27  13  55 W5        30.17R
COLDWATER      CLEAR     26  13  59 W3        30.21R
HOLLAND        CLEAR     28  15  58 S3        30.23R
GRAND RAPIDS   CLEAR     28  14  55 W9        30.21R
KALAMAZOO      CLEAR     29  10  45 CALM      30.22R
MARSHALL       CLEAR     23   9  54 W3        30.21R
MUSKEGON       CLEAR     27  14  58 S5        30.22R
$$
MIZ016>042-160300-
NORTHERN LOWER MICHIGAN

CITY           SKY/WX    TMP DP  RH WIND       PRES   REMARKS
ALPENA         MOCLDY    22  13  68 NW3       30.16R
BEAVER ISLAND  PTCLDY    21  19  91 CALM      30.16R
BELLAIRE       MOCLDY    25  17  71 CALM      30.16R
CADILLAC       CLEAR     22  12  66 SW6       30.13R
CHARLEVOIX     PTCLDY    26  17  69 SW8       30.18R
FRANKFORT      PTCLDY    28  20  72 SW6       30.17R
GAYLORD        PTCLDY    18  10  71 CALM      30.11R
GRAYLING       CLEAR     18  10  72 CALM      30.14R
HARBOR SPRINGS CLOUDY    25  19  76 CALM      30.15R
HOUGHTON LAKE  CLEAR     24  11  57 W5        30.14R
MANISTEE       CLEAR     27  14  59 SW7       30.19R
OSCODA         CLEAR     22   8  55 W5        30.17R
PELLSTON       LGT SNOW  21  18  88 CALM      30.17R FOG
TRAVERSE CITY  PTCLDY    27  14  58 SW3       30.15R
$$
MIZ007>008-015-160300-
EASTERN UPPER MICHIGAN

CITY           SKY/WX    TMP DP  RH WIND       PRES   REMARKS
KINROSS        CLEAR     14  10  85 W3        30.14R
MACKINAC ISLAN MOCLDY    21  16  79 W5        30.15R
NEWBERRY       CLEAR      9   6  88 CALM      30.14R
S. S. MARIE    CLEAR     17   8  67 W5        30.15R
$$
MIZ004>006-011>014-085-160300-
CENTRAL UPPER MICHIGAN

CITY           SKY/WX    TMP DP  RH WIND       PRES   REMARKS
MANISTIQUE     CLEAR     19  14  82 NW3       30.15R
ESCANABA       CLEAR     23  18  80 NE5       30.14R
MENOMINEE      CLOUDY    27  18  69 E5        30.14R
SAWYER-GWINN   CLEAR     10   9  92 CALM      30.11R
$$
MIZ001>003-009>011-084-160300-
WESTERN UPPER MICHIGAN

CITY           SKY/WX    TMP DP  RH WIND       PRES   REMARKS
IRON MOUNTAIN  CLEAR     19   8  62 CALM      30.09R
HOUGHTON       CLEAR     18   3  52 CALM      30.09R
COPPER HARBOR    N/A     20   9  62 CALM      30.11R
IRONWOOD       CLEAR     23   7  50 CALM      30.06R
$$

ABBREVIATIONS USED IN REMARKS
   TC - TEMPERATURE IN CELSIUS
  WCI - WIND CHILL INDEX
   HX - HEAT INDEX
  VSB - VISIBILITY




USA.gov is the U.S. government's official web portal to all federal, state and local government web resources and services.